Lapeer, MI

9:38 AM EDT on April 28, 2017 (GMT -0400)
Lapeer

Weather History for KD95 - May, 2013

Change the Weather History Date:

Thursday, May 16, 2013

  Actual Average (KFNT) Record (KFNT)
Temperature  
Mean Temperature 60 °F -  
Max Temperature 78 °F 68 °F 90 °F (1962)
Min Temperature 43 °F 46 °F 30 °F (1921)
Degree Days  
Heating Degree Days 4    
Growing Degree Days 10 (Base 50)    
Moisture  
Dew Point 41 °F    
Average Humidity 55    
Maximum Humidity 97    
Minimum Humidity 23    
Precipitation  
Precipitation 0.00 in - - ()
Sea Level Pressure  
Sea Level Pressure 29.90 in    
Wind  
Wind Speed 3 mph (North)    
Max Wind Speed 12 mph    
Max Gust Speed 17 mph    
Visibility 10 miles    
Events      
Averages and records for this station are not official NWS values.
T = Trace of Precipitation, MM = Missing Value Source: NWS Daily Summary

Daily Weather History Graph

Daily Weather History Graph

Search for Another Location

Airport or City:

Trip Planner

Search our weather history database for the weather conditions in past years. The results will help you decide how hot, cold, wet, or windy it might be!

Date:

Astronomy

May. 16, 2013 Rise Set
Actual Time 6:08 AM EDT 8:51 PM EDT
Civil Twilight 5:35 AM EDT 9:24 PM EDT
Nautical Twilight 4:54 AM EDT 10:05 PM EDT
Astronomical Twilight 4:07 AM EDT 10:53 PM EDT
Moon 11:43 AM EDT (5/16) 1:08 AM EDT (5/16)
Length of Visible Light 15h 48m
Length of Day
14h 42m
Waxing Crescent, 35% of the Moon is Illuminated
May 16
Waxing Crescent
May 18
First Quarter
May 25
Full
May 31
Last Quarter
Jun 8
New

Hourly Weather History & Observations

Time (EDT) Temp. Dew Point Humidity Pressure Visibility Wind Dir Wind Speed Gust Speed Precip Events Conditions
12:13 AM 59.2 °F 44.8 °F 59% 29.80 in 10.0 mi Calm Calm - N/A   Clear
12:54 AM 54.5 °F 45.1 °F 71% 29.80 in 10.0 mi Calm Calm - N/A   Clear
1:14 AM 54.1 °F 44.6 °F 70% 29.80 in 10.0 mi Calm Calm - N/A   Clear
1:34 AM 51.6 °F 44.6 °F 77% 29.80 in 10.0 mi Calm Calm - N/A   Clear
1:53 AM 50.5 °F 45.3 °F 82% 29.80 in 10.0 mi Calm Calm - N/A   Clear
2:14 AM 49.1 °F 43.7 °F 82% 29.81 in 10.0 mi Calm Calm - N/A   Clear
2:33 AM 49.1 °F 44.6 °F 84% 29.80 in 10.0 mi Calm Calm - N/A   Clear
2:54 AM 48.4 °F 44.2 °F 86% 29.80 in 10.0 mi Calm Calm - N/A   Clear
3:14 AM 46.2 °F 43.9 °F 92% 29.80 in 10.0 mi Calm Calm - N/A   Clear
3:33 AM 46.2 °F 43.7 °F 91% 29.80 in 10.0 mi Calm Calm - N/A   Clear
3:54 AM 45.7 °F 43.7 °F 93% 29.81 in 10.0 mi Calm Calm - N/A   Clear
4:13 AM 45.1 °F 43.2 °F 93% 29.81 in 10.0 mi Calm Calm - N/A   Clear
4:34 AM 44.6 °F 43.3 °F 95% 29.81 in 10.0 mi Calm Calm - N/A   Clear
4:54 AM 44.1 °F 42.8 °F 95% 29.82 in 10.0 mi Calm Calm - N/A   Clear
5:13 AM 44.6 °F 43.2 °F 95% 29.83 in 10.0 mi Calm Calm - N/A   Clear
5:34 AM 44.6 °F 43.5 °F 96% 29.83 in 10.0 mi Calm Calm - N/A   Clear
5:53 AM 44.1 °F 43.0 °F 96% 29.83 in 10.0 mi Calm Calm - N/A   Clear
6:14 AM 44.6 °F 43.3 °F 95% 29.84 in 10.0 mi Calm Calm - N/A   Clear
6:34 AM 43.9 °F 43.2 °F 97% 29.84 in 10.0 mi Calm Calm - N/A   Clear
6:53 AM 45.0 °F 44.2 °F 97% 29.84 in 10.0 mi Calm Calm - N/A   Clear
7:14 AM 48.2 °F 45.5 °F 90% 29.85 in 10.0 mi Calm Calm - N/A   Clear
7:33 AM 52.2 °F 48.2 °F 86% 29.85 in 10.0 mi Calm Calm - N/A   Clear
7:54 AM 58.3 °F 46.2 °F 64% 29.85 in 10.0 mi Calm Calm - N/A   Clear
8:14 AM 61.0 °F 45.0 °F 56% 29.86 in 10.0 mi West 4.6 mph - N/A   Clear
8:33 AM 62.8 °F 44.8 °F 52% 29.86 in 10.0 mi West 3.5 mph - N/A   Clear
8:54 AM 64.2 °F 44.6 °F 49% 29.87 in 10.0 mi NW 5.8 mph - N/A   Clear
9:14 AM 64.8 °F 44.4 °F 48% 29.88 in 10.0 mi NW 4.6 mph - N/A   Clear
9:34 AM 65.3 °F 44.6 °F 47% 29.89 in 10.0 mi NW 5.8 mph - N/A   Clear
9:54 AM 66.6 °F 45.3 °F 46% 29.90 in 10.0 mi WNW 3.5 mph - N/A   Clear
10:13 AM 68.4 °F 44.4 °F 42% 29.89 in 10.0 mi NNW 4.6 mph - N/A   Clear
10:34 AM 69.6 °F 43.7 °F 39% 29.90 in 10.0 mi NNW 6.9 mph - N/A   Clear
10:54 AM 71.1 °F 41.7 °F 35% 29.90 in 10.0 mi NW 8.1 mph - N/A   Clear
11:13 AM 71.1 °F 41.2 °F 34% 29.90 in 10.0 mi NNW 9.2 mph - N/A   Clear
11:34 AM 71.8 °F 41.0 °F 33% 29.91 in 10.0 mi NNW 6.9 mph - N/A   Clear
11:54 AM 72.7 °F 39.7 °F 30% 29.91 in 10.0 mi NNW 6.9 mph - N/A   Clear
12:14 PM 71.6 °F 40.1 °F 32% 29.91 in 10.0 mi Calm Calm - N/A   Clear
12:34 PM 73.0 °F 40.3 °F 31% 29.91 in 10.0 mi NNW 4.6 mph - N/A   Clear
12:53 PM 74.3 °F 39.7 °F 29% 29.91 in 10.0 mi NNE 10.4 mph - N/A   Clear
1:14 PM 75.0 °F 37.9 °F 26% 29.91 in 10.0 mi NW 9.2 mph - N/A   Clear
1:34 PM 75.7 °F 35.8 °F 23% 29.90 in 10.0 mi NNW 11.5 mph - N/A   Clear
1:53 PM 75.6 °F 35.8 °F 24% 29.90 in 10.0 mi North 6.9 mph - N/A   Clear
2:14 PM 76.5 °F 36.0 °F 23% 29.90 in 10.0 mi North 6.9 mph - N/A   Clear
2:33 PM 76.3 °F 36.7 °F 24% 29.90 in 10.0 mi NNW 11.5 mph - N/A   Clear
2:54 PM 77.2 °F 37.0 °F 23% 29.90 in 10.0 mi NW 10.4 mph 17.3 mph N/A   Clear
3:14 PM 78.1 °F 38.7 °F 24% 29.91 in 10.0 mi WNW 5.8 mph - N/A   Clear
3:34 PM 77.0 °F 37.8 °F 24% 29.91 in 10.0 mi NNW 4.6 mph - N/A   Clear
3:54 PM 77.2 °F 38.8 °F 25% 29.91 in 10.0 mi West 8.1 mph - N/A   Clear
4:13 PM 77.7 °F 39.9 °F 26% 29.90 in 10.0 mi North 9.2 mph - N/A   Clear
4:34 PM 77.9 °F 39.0 °F 25% 29.90 in 10.0 mi West 6.9 mph - N/A   Clear
4:54 PM 76.6 °F 39.2 °F 26% 29.90 in 10.0 mi Calm Calm - N/A   Clear
5:13 PM 77.5 °F 40.1 °F 26% 29.90 in 10.0 mi North 5.8 mph - N/A   Clear
5:34 PM 77.7 °F 40.3 °F 26% 29.91 in 10.0 mi ESE 11.5 mph 17.3 mph N/A   Scattered Clouds
6:13 PM 71.1 °F 41.5 °F 34% 29.93 in 10.0 mi East 10.4 mph - N/A   Scattered Clouds
6:34 PM 67.6 °F 40.5 °F 37% 29.94 in 10.0 mi ESE 9.2 mph - N/A   Clear
6:54 PM 66.0 °F 40.6 °F 39% 29.95 in 10.0 mi East 8.1 mph 16.1 mph N/A   Clear
7:13 PM 64.6 °F 39.9 °F 40% 29.95 in 10.0 mi East 8.1 mph 17.3 mph N/A   Clear
7:34 PM 62.6 °F 39.7 °F 43% 29.96 in 10.0 mi ENE 8.1 mph - N/A   Clear
7:53 PM 61.0 °F 38.8 °F 44% 29.97 in 10.0 mi ENE 8.1 mph - N/A   Clear
8:14 PM 59.9 °F 39.7 °F 47% 29.98 in 10.0 mi East 8.1 mph - N/A   Clear
8:34 PM 58.3 °F 38.8 °F 48% 29.99 in 10.0 mi ENE 5.8 mph - N/A   Clear
8:53 PM 56.8 °F 38.1 °F 50% 30.00 in 10.0 mi East 8.1 mph - N/A   Clear
9:14 PM 55.4 °F 38.8 °F 54% 30.00 in 10.0 mi ENE 4.6 mph - N/A   Clear
9:34 PM 54.5 °F 39.2 °F 56% 30.01 in 10.0 mi East 3.5 mph - N/A   Clear
9:53 PM 53.2 °F 39.4 °F 59% 30.02 in 10.0 mi Calm Calm - N/A   Clear
10:14 PM 52.3 °F 39.6 °F 62% 30.04 in 10.0 mi Calm Calm - N/A   Clear
10:34 PM 51.8 °F 39.2 °F 62% 30.04 in 10.0 mi ENE 3.5 mph - N/A   Clear
10:53 PM 51.1 °F 38.8 °F 63% 30.05 in 10.0 mi ENE 3.5 mph - N/A   Clear
11:14 PM 50.4 °F 39.2 °F 66% 30.05 in 10.0 mi Calm Calm - N/A   Clear
11:33 PM 50.0 °F 38.8 °F 66% 30.05 in 10.0 mi ENE 3.5 mph - N/A   Clear
11:54 PM 49.3 °F 38.7 °F 67% 30.06 in 10.0 mi Calm Calm - N/A   Clear